Weather in Stryapunyata

Russia / Perm Krai     58°10′47″N   55°56′53″E
temp.,
°C
wind,
m/s
gust,
m/s
humid.,
%
clouds,
%
prec.,
mm/h
press.,
hPa
HPBL,
m
28 february, sun
sun2823:00−17ese51092100 0.4 1010531
02:00−19e41095100 0.1 1010449
05:00−18e4109499 0.2 1010480
08:00−18ene4995100 0.2 1010482
11:00−17ene4891100 0.3 1010507
14:00−15ene4788100 0.1 1010590
17:00−14ene4789100 0.2 1011611
20:00−16ene399598 0.1 1013442
1 march, mon
mon123:00−19ne369786 0.1 1015138
02:00−20nne359877 0.0 1016111
05:00−20nne369784 0.1 1018143
08:00−22nne239777 0.0 101972
11:00−17ne238948 0.0 1019270
14:00−12ene128175 0.0 1018491
17:00−11n008387 0.0 1018464
20:00−16ssw1296100 0.0 101720
2 march, tue
tue223:00−19ssw239887 0.0 101629
02:00−20ssw3610079 0.0 1014120
05:00−19ssw3109988 0.0 1012267
08:00−17s41094100 0.0 1009396
11:00−15s51194100 0.3 1007456
14:00−12s51193100 0.9 1005572
17:00−12ssw51093100 1.8 1004604
20:00−13s41094100 0.8 1003595
3 march, wed
wed323:00−13s31095100 1.1 1002449
02:00−12sse2796100 0.5 1001359
05:00−12sse2696100 1.0 1001249
08:00−12sse2496100 0.7 1000196
11:00−10sse1292100 1.2 1000264
14:00−7ese1189100 0.4 1000337
17:00−7n1192100 0.8 1000270
20:00−10n1296100 0.3 100021
4 march, thu
thu423:00−11nw1296100 0.4 100121
02:00−9nnw3995100 0.1 1002409
05:00−11nnw499499 0.2 1003332
08:00−16nw379786 0.0 1004152
11:00−11nw369389 0.1 1005305
14:00−7wnw368698 0.0 1005734
17:00−7w358399 0.1 1006841
20:00−12sw239574 0.0 100671